P/2017 K3 ( Gasparovic )

Japanese version
Home page
Updated on October 8, 2017

---------------------------------------------------------------------

* Profile

Discovery Date May 22, 2017
Magnitude 19.4 mag
Discoverer Goran Gasparovic (Zagreb, Croatia)

* Pictures

* Orbital Elements

Epoch 2017 June 16.0 TT = JDT 2457920.5
T 2017 May 31.66488 TT                                  MPCW
q   2.3342096            (2000.0)            P               Q
n   0.07489822     Peri.  253.28324     -0.38083198     +0.92461472
a   5.5738469      Node   354.31515     -0.81738393     -0.34038063
e   0.5812211      Incl.    4.27877     -0.43226208     -0.17096386
P  13.16
From 91 observations 2017 May 21-July 20, mean residual 0".5.

* Magnitudes Graph

        m1 = 14.0 + 5 log d + 10.0 log r

---------------------------------------------------------------------

The orbital elements are published on M.P.E.C. 2017-T14.
The magnitudes graphs are made with Comet for Windows.

---------------------------------------------------------------------

Copyright(C) Seiichi Yoshida (comet@aerith.net). All rights reserved.